www.pogodaiklimat.ru

Погода и климат >> Архив погоды >> Россия >> Приморский край >> Владивосток


АРХИВ ПОГОДЫ в Владивостоке

Время (UTC), дата Ветер
(напр.,м/с)
 
Видим.   Явления Облачность Т
(С)
Тd
(С)
f
(%)
Тe
(С)
Тes
(С)
Комфортность P
(гПа)
Po
(гПа)
Тmin
(С)
Tmax
(С)
R
(мм)
R24
(мм)
S
(см)
00 17.05 С 11-18
{20}
50 км 9/0
[Ac cast Cc]
+14.2 +6.3 59 +11 +12 тепло 1007.6 985.4
03 17.05 С 8-14
{19}
50 км 9/0
[Ac lent Ci fib]
+17.4 +5.2 45 +16 +18 тепло 1007.6 985.7
06 17.05 Ю 8-13
{14}
50 км 10/0
[As op]
+10.2 +6.4 77 +6 +7 прохладно 1009.3 986.7
09 17.05 ЮВ 8-11
{14}
50 км слабый дождь 10/10 600 м
[Sc]
+7.4 +5.4 87 +2 +2 холодно 1012.1 989.2 +18.5 0.4
12 17.05 Ю 5
{13}
50 км {дождь} 10/0
[As trans]
+7.4 +5.4 87 +3 +3 прохладно 1012.8 989.9
15 17.05 З 2 50 км 10/0
[As trans]
+7.4 +4.4 81 +5 +5 по сезону 1012.2 989.4
18 17.05 СЗ 2 50 км слабый дождь 10/10 600 м
[Sc]
+8.0 +5.1 82 +6 +6 по сезону 1011.3 988.5
21 17.05 С 6 50 км слабый дождь 10/10 600 м
[Sc]
+7.4 +6.5 94 +3 +3 прохладно 1010.9 988.1 +6.7 4
00 18.05 С 6 50 км слабый дождь 10/10 600 м
[Sc]
+8.4 +8.0 97 +4 +4 прохладно 1011.1 988.4
03 18.05 С 6-11
{12}
50 км {дождь} 10/10 600 м
[Sc]
+11.4 +5.3 66 +9 +9 по сезону 1010.5 988.1
06 18.05 С 7-12
{12}
50 км {дождь} 10/10 600 м
[Sc]
+11.8 +6.6 70 +9 +9 по сезону 1010.3 987.8
09 18.05 С 7-12
{13}
50 км 6/6 600 м
[Sc]
+12.8 +6.2 64 +10 +10 по сезону 1010.8 988.4 +13.4 2
12 18.05 С 6-10
{13}
50 км 4/4 600 м
[Sc]
+11.1 +7.1 76 +8 +8 по сезону 1012.7 990.1
15 18.05 С 3
{10}
50 км ясно +9.3 +5.8 79 +7 +7 по сезону 1014.3 991.6
18 18.05 С 5 50 км ясно +8.1 +7.1 93 +4 +4 по сезону 1014.8 992.0
21 18.05 С 3 50 км ясно +8.1 +7.3 95 +5 +6 по сезону 1015.6 992.8 +7.6
00 19.05 С 4 50 км ясно +12.6 +7.9 73 +11 +18 тепло 1016.6 994.1
03 19.05 С 4 50 км ясно +18.1 +6.4 46 +18 +31 опасность
простуды
1016.0 993.9
06 19.05 С 7-10
{11}
50 км ясно +20.7 +4.2 34 +21 +24 комфорт 1015.5 993.6
09 19.05 С 6
{12}
50 км ясно +22.4 +2.3 27 +22 +23 комфорт 1016.1 994.3 +22.5
12 19.05 ЮВ 11-14
{17}
50 км ясно +10.1 +3.7 64 +6 +6 по сезону 1020.6 997.7
15 19.05 Ю 8
{14}
50 км ясно +10.0 +3.1 62 +6 +6 по сезону 1022.2 999.4
18 19.05 ЮВ 5
{11}
20 км ясно +9.1 +3.0 66 +6 +6 по сезону 1022.7 999.8
21 19.05 ЮВ 4 50 км ясно +9.8 +2.5 60 +7 +8 по сезону 1023.2 1000.3 +8.8
00 20.05 Ю 3 50 км 10/0
[Ci fib]
+14.0 +4.2 52 +13 +20 тепло 1023.6 1001.0
03 20.05 ЮВ 6 50 км 10/0
[Cs]
+14.6 +4.5 51 +13 +19 тепло 1023.0 1000.5
06 20.05 ЮВ 5 50 км 10/0
[Cs]
+15.3 +6.5 56 +14 +19 тепло 1021.5 999.0
09 20.05 ЮВ 5 50 км 8/0
[Cs]
+12.1 +6.2 67 +10 +11 по сезону 1020.9 998.3 +15.5
12 20.05 Ю 5 50 км 6/0
[Cs]
+13.0 +4.2 55 +11 +11 тепло 1021.4 998.8
15 20.05 ЮВ 4 50 км 6/0
[Cs]
+12.0 +4.0 58 +10 +10 тепло 1020.6 998.0
18 20.05 ЮВ 5 50 км ясно +11.1 +3.9 61 +9 +9 тепло 1020.4 997.7
21 20.05 В 2 50 км 6/0
[Ci fib]
+10.0 +4.4 68 +9 +10 по сезону 1020.6 997.8 +8.4
00 21.05 ЮВ 5 50 км 8/0
[Cc]
+13.4 +5.0 57 +12 +16 тепло 1020.4 997.9
03 21.05 ЮВ 8 50 км 9/3 600 м
[Cb cap Ci fib]
+15.7 +4.1 46 +14 +16 тепло 1019.2 996.9
06 21.05 ЮВ 7 50 км 4/0
[Ac cast]
+14.5 +6.0 57 +13 +15 по сезону 1018.0 995.6
09 21.05 ЮВ 7 50 км 9/0
[Cc]
+13.0 +2.8 50 +11 +11 по сезону 1017.3 994.8 +19.4
12 21.05 ЮВ 8-11
{12}
50 км 3/0
[Ac cast]
+10.2 +2.8 60 +7 +7 по сезону 1018.1 995.3
15 21.05 ЮВ 8
{12}
50 км ясно +9.9 +2.1 58 +6 +6 по сезону 1017.7 994.9
18 21.05 ЮВ 8-10
{12}
50 км ясно +8.9 +3.3 68 +5 +5 по сезону 1017.7 994.8
21 21.05 ЮВ 8
{10}
50 км ясно +9.1 +5.9 80 +5 +5 по сезону 1017.3 994.5 +8.3
00 22.05 ЮВ 10-13
{13}
50 км 9/6 600 м
[Cu hum Ac cast]
+11.2 +7.7 79 +7 +7 по сезону 1016.4 993.8
03 22.05 Ю 8-11
{14}
200 м туман ?/? +9.3 +9.3 100 +5 +5 прохладно 1014.8 992.0
06 22.05 Ю 8-12
{14}
200 м туман ?/? +9.2 +9.1 99 +5 +5 холодно 1012.2 989.5
09 22.05 Ю 11-15
{15}
20 км {туман} 10/0
[As op]
+9.0 +8.2 95 +4 +4 холодно 1009.6 986.9 +11.8
12 22.05 Ю 6
{15}
20 км {туман} 10/0
[As op]
+9.0 +8.8 99 +5 +5 прохладно 1009.0 986.4
15 22.05 ЮВ 9-11
{12}
200 м туман ?/? +9.0 +8.9 99 +4 +4 прохладно 1006.9 984.3
18 22.05 ЮВ 9-11
{12}
200 м дождь {туман} ?/? +9.1 +9.1 100 +4 +4 по сезону 1004.2 981.7
21 22.05 ЮЗ 2
{14}
200 м сильный дождь {туман} ?/? +8.8 +8.8 100 +7 +7 по сезону 1003.5 981.0 +8.5 18
00 23.05 С 7-12
{16}
20 км в посл. час дождь {туман} 8/0
[As op]
+7.8 +6.8 93 +3 +4 холодно 1004.5 981.9 +7.7
03 23.05 С 6
{15}
50 км 4/4 600 м
[Cu hum]
+13.0 +4.4 56 +11 +15 по сезону 1003.1 980.9
06 23.05 Ю 5 50 км 4/4 600 м
[Cu hum]
+14.5 +4.6 51 +13 +17 по сезону 1002.1 980.1
09 23.05 Ю 7 50 км 3/3 600 м
[Cu hum]
+13.0 +4.2 55 +11 +11 по сезону 1002.0 979.8 +15.6 7
12 23.05 Ю 8-11
{13}
50 км ясно +10.7 +2.3 56 +7 +7 по сезону 1003.7 981.3
15 23.05 Ю 9-14
{15}
50 км 10/0
[As trans]
+10.2 +3.3 62 +6 +6 по сезону 1003.7 981.3
18 23.05 Ю 9-12
{15}
50 км 10/0
[As trans]
+8.2 +6.5 89 +3 +3 прохладно 1002.6 980.0
21 23.05 Ю 9-11
{13}
20 км слабый дождь 10/10 600 м
[Sc]
+8.0 +7.1 94 +3 +3 прохладно 1001.9 979.4 +7.9 0.0

 

Местоположение метеостанции Владивосток (Приморский край, Россия): широта 43.12 долгота 131.90 высота над уровнем моря 188 м.

В архиве по умолчанию представлена погода в Владивостоке за последнюю неделю. Архивные данные за месяц целиком и за предыдущие месяцы, начиная с января 2011 года, Вы можете получить, выбрав интересующий диапазон дат из раскрывающегося списка и нажав кнопку "Ввод!".


*Определитесь, кто Вы:
робот инопланетянин человек

Внимание! Время в таблицах - всемирное. Для получения местного времени необходимо прибавить поправку, которая в Владивостоке равна 10 ч.

Смотрите также архив погоды в соседних городах и на ближайших метеорологических станциях:

Погода на Мысе Назимова (Приморский край, Россия) (8 км)
Погода в Барабаше (Приморский край, Россия) (42 км)
Погода в Многоудобном (Приморский край, Россия) (60 км)
Погода в Находке (Приморский край, Россия) (81 км)
Погода в Гамове (Приморский край, Россия) (84 км)
Погода в Тимирязевском (Приморский край, Россия) (85 км)
Погода в Партизанске (Приморский край, Россия) (89 км)
Погода в Посьете (Приморский край, Россия) (104 км)
Погода в Полтавке (Приморский край, Россия) (112 км)
Погода в Анучино (Приморский край, Россия) (130 км)

Пояснения к столбцам:

Ветер - указаны скорость ветра в м/с - средняя за 10 мин, порывы в срок и между сроками (в фигурных скобках) и направление, откуда дует ветер: С - северный, СВ - северо-восточный, В - восточный, ЮВ - юго-восточный, Ю - южный, ЮЗ - юго-западный, З - западный, СЗ - северо-западный.
Видимость - горизонтальная дальность видимости в метрах или километрах. При видимости от 1 до 10 км при отсутствии осадков обычно наблюдается дымка, при ухудшении видимости до 1 км и менее - туман. В сухую погоду видимость может ухудшаться дымом, пылью или мглою.
Явления - указаны атмосферные явления, наблюдавшиеся в срок или в последний час перед сроком; фигурными скобками обозначены явления, наблюдавшиеся между сроками (за 1-3 часа до срока); квадратными скобками обозначены град или гололедные отложения с указанием их диаметра в мм.
Облачность - указаны через наклонную черту общая и нижняя облачность в баллах и высота нижней границы облаков в метрах; квадратными скобками обозначены формы облаков: Ci - перистые, Cs - перисто-слоистые, Cc - перисто-кучевые, Ac - высококучевые, As - высокослоистые, Sc - слоисто-кучевые, Ns - слоисто-дождевые, Cu - кучевые, Cb - кучево-дождевые. Подробнее классификацию облаков см. в Атласе облаков (PDF).
T - Температура воздуха - температура, измеренная на высоте 2 м над землей.
Td - Температура точки росы - температура, при понижении до которой содержащийся в воздухе водяной пар достигнет насыщения.
f - Относительная влажность воздуха - влажноcть воздуха, измеренная на высоте 2 м над землей.
Te - Эффективная температура - температура, которую ощущает одетый по сезону человек в тени. Характеристика душности погоды. При расчете учитывается влияние влажности воздуха и скорости ветра на теплоощущения человека.
Tes - Эффективная температура на солнце - температура, которую ощущает человек, с поправкой на солнечный нагрев. Характеристика знойности погоды. Зависит от высоты солнца над горизонтом, облачности и скорости ветра. Ночью, в пасмурную погоду, а также при ветре 12 м/с и более поправка равна нулю.
P - Атмосферное давление - приведенное к уровню моря атмосферное давление.
Po - Атмосферное давление - измеренное на уровне метеостанции атмосферное давление.
Tmin - Минимальная температура - минимум температуры воздуха на высоте 2 м над землей.
Tmax - Максимальная температура - максимум температуры воздуха на высоте 2 м над землей.
R - Количество осадков - Количество выпавших осадков за период времени, мм. При наведении курсора мыши на число - период времени, за который выпало указанное количество осадков.
R24 - Количество осадков - Количество выпавших осадков за 24 часа, мм.
S - Снежный покров - Высота снежного покрова, см. При наведении курсора мыши на число - состояние снежного покрова и степень покрытия местности в баллах.